Satellite: COMPASS
Catalog number: 32787
Epoch time:      12144.66025615
Element set:    0310
Inclination:      097.8013 deg
RA of node:       206.5365 deg
Eccentricity:    0.0015785
Arg of perigee:   137.3609 deg
Mean anomaly:     222.8860 deg
Mean motion:   14.83916215 rev/day
Decay rate:      2.168e-05 rev/day^2
Epoch rev:           22017
Checksum:              289

Satellite: AAUSAT2
Catalog number: 32788
Epoch time:      12144.90483209
Element set:    0302
Inclination:      097.8043 deg
RA of node:       207.1439 deg
Eccentricity:    0.0015927
Arg of perigee:   136.7284 deg
Mean anomaly:     223.5183 deg
Mean motion:   14.84233109 rev/day
Decay rate:      2.325e-05 rev/day^2
Epoch rev:           22023
Checksum:              282

Satellite: DO-64
Catalog number: 32789
Epoch time:      12145.64983381
Element set:     317
Inclination:      097.8144 deg
RA of node:       209.8056 deg
Eccentricity:    0.0015750
Arg of perigee:   132.3481 deg
Mean anomaly:     227.9100 deg
Mean motion:   14.85669889 rev/day
Decay rate:      4.259e-05 rev/day^2
Epoch rev:           22038
Checksum:              337

Satellite: CO-66
Catalog number: 32791
Epoch time:      12144.64031200
Element set:    0302
Inclination:      097.8019 deg
RA of node:       206.2777 deg
Eccentricity:    0.0016514
Arg of perigee:   137.4927 deg
Mean anomaly:     222.7590 deg
Mean motion:   14.83348469 rev/day
Decay rate:      1.665e-05 rev/day^2
Epoch rev:           22010
Checksum:              291

Satellite: RS-30
Catalog number: 32953
Epoch time:      12145.54588335
Element set:     805
Inclination:      082.4989 deg
RA of node:       309.8408 deg
Eccentricity:    0.0018926
Arg of perigee:   002.7982 deg
Mean anomaly:     357.3197 deg
Mean motion:   12.43023730 rev/day
Decay rate:        1.0e-07 rev/day^2
Epoch rev:           18162
Checksum:              308

Satellite: TACSAT-3
Catalog number: 35001
Epoch time:      12121.72616188
Element set:    0001
Inclination:      040.4259 deg
RA of node:       351.8840 deg
Eccentricity:    0.0007146
Arg of perigee:   275.2650 deg
Mean anomaly:     085.0693 deg
Mean motion:   16.45157000 rev/day
Decay rate:  1.5204951e-01 rev/day^2
Epoch rev:           16699
Checksum:              280

Satellite: PHARMSAT
Catalog number: 35002
Epoch time:      12145.33428465
Element set:     906
Inclination:      040.4587 deg
RA of node:       219.6431 deg
Eccentricity:    0.0006527
Arg of perigee:   043.0987 deg
Mean anomaly:     317.0567 deg
Mean motion:   15.79976714 rev/day
Decay rate:    1.22624e-03 rev/day^2
Epoch rev:           17054
Checksum:              303

Satellite: METEOR-M
Catalog number: 35865
Epoch time:      12145.71601448
Element set:     437
Inclination:      098.6561 deg
RA of node:       200.4795 deg
Eccentricity:    0.0003243
Arg of perigee:   110.0903 deg
Mean anomaly:     250.0619 deg
Mean motion:   14.21862464 rev/day
Decay rate:       -5.0e-08 rev/day^2
Epoch rev:           13926
Checksum:              273

Satellite: RS-38
Catalog number: 35869
Epoch time:      12145.67026256
Element set:     445
Inclination:      098.6521 deg
RA of node:       200.4341 deg
Eccentricity:    0.0005245
Arg of perigee:   113.7284 deg
Mean anomaly:     246.4440 deg
Mean motion:   14.22070906 rev/day
Decay rate:        6.1e-07 rev/day^2
Epoch rev:           13927
Checksum:              284

Satellite: JUGNU
Catalog number: 37839
Epoch time:      12144.36707117
Element set:     154
Inclination:      019.9625 deg
RA of node:       148.5937 deg
Eccentricity:    0.0018436
Arg of perigee:   312.6511 deg
Mean anomaly:     047.2322 deg
Mean motion:   14.12054918 rev/day
Decay rate:       6.19e-06 rev/day^2
Epoch rev:            3173
Checksum:              288

Satellite: SRMSAT
Catalog number: 37841
Epoch time:      12144.38783406
Element set:     155
Inclination:      019.9743 deg
RA of node:       152.8731 deg
Eccentricity:    0.0011970
Arg of perigee:   276.7691 deg
Mean anomaly:     083.1454 deg
Mean motion:   14.10139292 rev/day
Decay rate:       2.64e-06 rev/day^2
Epoch rev:            3168
Checksum:              297

Satellite: RAX-2
Catalog number: 37853
Epoch time:      12145.79562683
Element set:     185
Inclination:      101.7146 deg
RA of node:       175.3312 deg
Eccentricity:    0.0247714
Arg of perigee:   057.6799 deg
Mean anomaly:     304.8130 deg
Mean motion:   14.79824884 rev/day
Decay rate:      7.447e-05 rev/day^2
Epoch rev:            3093
Checksum:              331

Satellite: AUBIESAT
Catalog number: 37854
Epoch time:      12145.75627352
Element set:     186
Inclination:      101.7154 deg
RA of node:       175.4928 deg
Eccentricity:    0.0248832
Arg of perigee:   057.4149 deg
Mean anomaly:     305.0819 deg
Mean motion:   14.80185649 rev/day
Decay rate:      7.659e-05 rev/day^2
Epoch rev:            3092
Checksum:              325

Satellite: HRBE
Catalog number: 37855
Epoch time:      12144.95652156
Element set:    0200
Inclination:      101.7183 deg
RA of node:       174.2914 deg
Eccentricity:    0.0249391
Arg of perigee:   059.4706 deg
Mean anomaly:     303.0857 deg
Mean motion:   14.80041054 rev/day
Decay rate:      7.323e-05 rev/day^2
Epoch rev:           03080
Checksum:              276

Satellite: RS-39
Catalog number: 38051
Epoch time:      12145.72500233
Element set:     362
Inclination:      051.6321 deg
RA of node:       271.6125 deg
Eccentricity:    0.0011747
Arg of perigee:   314.2541 deg
Mean anomaly:     183.4089 deg
Mean motion:   15.23921389 rev/day
Decay rate:     1.0209e-04 rev/day^2
Epoch rev:            1839
Checksum:              274

Satellite: E-STAR
Catalog number: 38079
Epoch time:      12145.68107311
Element set:     247
Inclination:      069.4983 deg
RA of node:       009.3477 deg
Eccentricity:    0.0750111
Arg of perigee:   277.4780 deg
Mean anomaly:     074.1940 deg
Mean motion:   14.13706713 rev/day
Decay rate:     2.6585e-04 rev/day^2
Epoch rev:            1426
Checksum:              304

Satellite: GOLIAT
Catalog number: 38085
Epoch time:      12145.01954356
Element set:     226
Inclination:      069.4960 deg
RA of node:       011.0423 deg
Eccentricity:    0.0753694
Arg of perigee:   278.3938 deg
Mean anomaly:     073.2853 deg
Mean motion:   14.12723987 rev/day
Decay rate:     2.3719e-04 rev/day^2
Epoch rev:            1416
Checksum:              312

Satellite: HORYU-2
Catalog number: 38340
Epoch time:      12144.32142747
Element set:    0018
Inclination:      098.1772 deg
RA of node:       083.9989 deg
Eccentricity:    0.0014654
Arg of perigee:   051.5833 deg
Mean anomaly:     308.6703 deg
Mean motion:   14.69926881 rev/day
Decay rate:      3.745e-05 rev/day^2
Epoch rev:           00081
Checksum:              314

/EX




More information about the Keps mailing list